EW1979 Weather Reports


time (UTC)temp
C
wind
direction
speed
KPH
gust
KPH
rain 1hr
cm
rain 24hr
cm
rain mn
cm
humidity
%
barometer
mb
20260503220104 23 167 0.0 0.0 0.00 0.00 0.00 36 1015.2
20260503214504 22 156 0.0 0.0 0.00 0.00 0.00 38 1015.5
20260503213104 23 186 0.0 0.0 0.00 0.00 0.00 39 1015.9
20260503210008 23 148 0.0 0.0 0.00 0.00 0.00 36 1016.2
20260503204603 23 165 0.0 0.0 0.00 0.00 0.00 37 1016.5
20260503203006 23 182 0.0 0.0 0.00 0.00 0.00 39 1016.8
20260503201603 23 207 0.0 0.0 0.00 0.00 0.00 41 1017.0
20260503200007 23 165 0.0 0.0 0.00 0.00 0.00 42 1017.2
20260503194604 22 113 0.0 0.0 0.00 0.00 0.00 42 1017.3
20260503193011 22 202 0.0 0.0 0.00 0.00 0.00 37 1017.6
20260503191605 22 186 0.0 0.0 0.00 0.00 0.00 41 1017.8
20260503184609 22 186 0.0 0.0 0.00 0.00 0.00 44 1018.1
20260503181505 21 135 0.0 0.0 0.00 0.00 0.00 45 1019.0
20260503174620 21 172 0.0 0.0 0.00 0.00 0.00 51 1019.6
20260503173010 21 161 0.0 0.0 0.00 0.00 0.00 49 1019.9
20260503150105 18 164 0.0 0.0 0.00 0.00 0.00 58 1021.0
20260503110104 13 84 0.0 0.0 0.00 0.00 0.00 72 1018.9
20260503090105 14 84 0.0 0.0 0.00 0.00 0.00 69 1018.5
20260503081502 13 84 0.0 0.0 0.00 0.00 0.00 69 1018.6
20260503054507 14 83 0.0 0.0 0.00 0.00 0.00 67 1019.8
20260503044606 15 83 0.0 0.0 0.00 0.00 0.00 66 1019.7
20260503041603 14 82 0.0 0.0 0.00 0.00 0.00 66 1019.8
20260503040004 15 82 0.0 0.0 0.00 0.00 0.00 66 1019.8
20260503034534 14 82 0.0 0.0 0.00 0.00 0.00 66 1019.7
20260503031503 14 82 0.0 0.0 0.00 0.00 0.00 65 1019.5
20260503024604 15 82 0.0 0.0 0.00 0.00 0.00 62 1019.5
20260503014625 16 82 0.0 0.0 0.00 0.00 0.00 59 1018.7
20260503013105 16 82 0.0 0.0 0.00 0.00 0.00 58 1018.3
20260503011504 17 82 0.0 0.0 0.00 0.00 0.00 57 1018.1
20260503010004 18 82 0.0 0.0 0.00 0.00 0.00 55 1018.0
20260503004602 18 82 0.0 0.0 0.00 0.00 0.00 53 1018.1
20260503003020 19 83 0.0 0.0 0.00 0.00 0.00 51 1017.8
20260503001613 20 54 0.0 0.0 0.00 0.00 0.00 50 1017.7
20260503000104 20 46 0.0 0.0 0.00 0.00 0.00 49 1017.7
20260502234502 20 44 0.0 0.0 0.00 0.00 0.00 48 1017.9
20260502230007 20 43 0.0 0.0 0.00 0.00 0.00 47 1017.9
20260502224503 21 89 0.0 0.0 0.00 0.00 0.00 47 1017.8
20260502223106 21 88 0.0 0.0 0.00 0.00 0.00 49 1017.7